Location: Baili�vre
(50.0696°N, 4.2409°E)
Time: 08:00:59
(UTC+00:00)

SPOT 5 - Pass Details

Date: 08 August 2020
Orbit: 624 x 814 km, 98.3° (Epoch: 27 September)

Event Time Altitude Azimuth Distance (km) Brightness Sun altitude
Exits shadow 22:15:10 19° 228° (SW) 1,476 4.3 -21.0°
Maximum altitude 22:17:02 26° 266° (W) 1,238 4.2 -21.1°
Drops below altitude 10° 22:20:43 10° 323° (NW) 2,019 6.3 -21.3°
Sets 22:23:15 0° 336° (NNW) 2,946 7.6 -21.5°
